Regional Weather Roundup
Issued by NWS

Home | Current Version | Previous Version | Text Only | Print | Product List | Glossary Off
Versions: 1 2 3 4 5 6 7 8 9 10 11 12 13 14 15 16 17 18 19 20 21 22 23 24 25 26 27 28 29 30 31 32 33 34 35 36 37 38 39 40 41 42 43 44 45 46 47 48 49 50

000
ASUS43 KDTX 021510
RWRMI
MICHIGAN HOURLY REGIONAL WEATHER ROUNDUP
NATIONAL WEATHER SERVICE DETROIT/PONTIAC MI
1000 AM EST MON MAR 02 2015

NOTE: "FAIR" INDICATES FEW OR NO CLOUDS BELOW 12,000 FEET WITH NO
SIGNIFICANT WEATHER AND/OR OBSTRUCTION TO VISIBILITY.

MIZ047>049-052>055-059>063-066>070-074>076-081>083-021600-
SOUTHEAST LOWER MICHIGAN

CITY           SKY/WX    TMP DP  RH WIND       PRES   REMARKS
ADRIAN         SUNNY     20  12  71 W7        30.45R WCI  11
ALMA           SUNNY     23  12  63 NW12      30.41R WCI  11
ANN ARBOR      SUNNY     24  12  60 NW9       30.42R WCI  14
BAD AXE        SUNNY     21  12  67 NW13G21   30.37R WCI   9
CARO           SUNNY     22  11  64 W8        30.39R WCI  12
DETROIT CITY   SUNNY     27  11  51 NW9       30.41R WCI  18
DETROIT        MOSUNNY   25  12  58 NW8       30.43R WCI  16
FLINT          SUNNY     23  11  60 NW15      30.41R WCI  10
GROSSE ILE     SUNNY     25  14  63 W8        30.42R WCI  16
HILLSDALE      SUNNY     22  13  68 W8        30.42R WCI  13
HOWELL         SUNNY     22  11  63 NW8       30.40R WCI  13

CITY           SKY/WX    TMP DP  RH WIND       PRES   REMARKS
JACKSON        SUNNY     23  13  65 NW10      30.42R WCI  12
LAMBERTVILLE   SUNNY     23  14  68 W7        30.46R WCI  15
LANSING        SUNNY     23  12  62 NW10      30.42R WCI  12
LAPEER         FAIR      23  10  57 NW9G16    30.39R WCI  13
MASON          SUNNY     23  12  63 W7        30.42R WCI  15
MONROE         SUNNY     19  12  73 SW7       30.43R WCI  10
MT. CLEMENS    SUNNY     24  11  57 NW10      30.39R WCI  14
PONTIAC        MOSUNNY   23  11  60 NW9       30.38R WCI  13
PORT HOPE        N/A     22  11  62 NW17G26   30.35R WCI   8
PORT HURON     SUNNY     23  12  63 NW10G17   30.40R WCI  12
TRI CITIES     SUNNY     24  10  55 NW15      30.40R WCI  11
TROY           SUNNY     27  11  52 NW12      30.42S WCI  16
SAGINAW HB     SUNNY     25  14  63 W10       30.40R WCI  15
$$
MIZ043>046-050>051-056>058-064>065-071>073-077>080-021600-
SOUTHWEST LOWER MICHIGAN

CITY           SKY/WX    TMP DP  RH WIND       PRES   REMARKS
BATTLE CREEK   SUNNY     24  14  65 NW9       30.43R WCI  14
BENTON HARBOR  CLOUDY    24  16  71 W8        30.48R WCI  15
BIG RAPIDS     PTSUNNY   23  12  63 NW12G18   30.37S WCI  12
COLDWATER      SUNNY     18  12  77 SW7       30.44R WCI   9
FREMONT        FAIR      23  10  59 NW8       30.42R WCI  13
HOLLAND        PTSUNNY   26  14  60 NW7       30.46R WCI  18
GRAND RAPIDS   MOSUNNY   25  13  60 NW9       30.43R WCI  15
IONIA          FAIR      24  13  62 NW7       30.41R WCI  16
KALAMAZOO      PTSUNNY   24  15  68 NW8       30.44R WCI  15
LUDINGTON      CLOUDY    23  11  59 N14       30.43R WCI  11
MARSHALL       SUNNY     23  13  63 W8        30.43R WCI  14
MOUNT PLEASANT SUNNY     26  13  57 W7        30.40R WCI  18
MUSKEGON       CLOUDY    26  14  60 NW9       30.45R WCI  17
SOUTH HAVEN    SUNNY     28  17  63 NW8       30.47R WCI  19
$$
MIZ016>042-021600-
NORTHERN LOWER MICHIGAN

CITY           SKY/WX    TMP DP  RH WIND       PRES   REMARKS
ALPENA         MOSUNNY   20   7  57 NW14G24   30.34R WCI   7
BEAVER ISLAND  SUNNY     19   7  60 W10G16    30.38R WCI   7
BELLAIRE       SUNNY     21   7  54 NW9G18    30.41R WCI  11
CADILLAC       MOSUNNY   19   7  59 NW15G24   30.34R WCI   5
CHARLEVOIX     SUNNY     19  10  69 W14       30.42R WCI   5
FRANKFORT      FAIR      22   8  56 NW13      30.42R WCI  10
GAYLORD        MOSUNNY   18   5  57 NW9G20    30.31R WCI   7
GRAYLING       MOSUNNY   18   6  59 W10G21    30.35R WCI   7
HARBOR SPRINGS SUNNY     20   8  59 W13G20    30.35S HAZE    WCI   7
HOUGHTON LAKE  CLOUDY    18   6  59 NW14G23   30.36R WCI   4
MANISTEE       PTSUNNY   21   7  53 N12G18    30.44R WCI   9
OSCODA         PTSUNNY   22   8  54 NW16      30.35R WCI   8
PELLSTON       SUNNY     18   8  65 W17G23    30.36R WCI   3
ROGERS CITY    MOSUNNY   21  11  65 NW16G26   30.34R WCI   7
TRAVERSE CITY  MOSUNNY   21   7  54 NW13      30.40R WCI   9
$$
MIZ007>008-015-021600-
EASTERN UPPER MICHIGAN

CITY           SKY/WX    TMP DP  RH WIND       PRES   REMARKS
KINROSS        CLOUDY    18  10  73 NW18G30   30.29S WCI   2
MACKINAC ISLAN SUNNY     18   7  62 W14G20    30.33R WCI   4
NEWBERRY       PTSUNNY   17   6  62 NW15G21   30.33R WCI   2
S. S. MARIE    MOSUNNY   17   5  59 NW14G22   30.30R WCI   3
MUNISING         N/A     19   5  54 NW10G20   30.38R WCI   7
$$
MIZ004>006-011>014-085-021600-
CENTRAL UPPER MICHIGAN

CITY           SKY/WX    TMP DP  RH WIND       PRES   REMARKS
MANISTIQUE     SUNNY     18   6  59 W14G21    30.37R WCI   4
ESCANABA       SUNNY     19   7  58 NW13      30.40F WCI   7
MENOMINEE      SUNNY     19   7  58 NW7       30.43R WCI  10
SAWYER-GWINN   SUNNY     14   1  57 NW16G22   30.34R WCI  -2
$$
MIZ001>003-009>011-084-021600-
WESTERN UPPER MICHIGAN

CITY           SKY/WX    TMP DP  RH WIND       PRES   REMARKS
IRON MOUNTAIN  SUNNY     17   5  59 NW15G22   30.36S WCI   2
HOUGHTON       SUNNY     14   4  64 W18       30.34R WCI  -3
COPPER HARBOR    N/A     15   4  61 N15       30.36R WCI   0
IRONWOOD       SUNNY     12   7  79 SW6       30.35S WCI   3
$$

ABBREVIATIONS USED IN REMARKS
   TC - TEMPERATURE IN CELSIUS
  WCI - WIND CHILL INDEX
   HX - HEAT INDEX
  VSB - VISIBILITY




USA.gov is the U.S. government's official web portal to all federal, state and local government web resources and services.